Regional Weather Roundup
Issued by NWS

Home | Current Version | Previous Version | Text Only | Print | Product List | Glossary On
Versions: 1 2 3 4 5 6 7 8 9 10 11 12 13 14 15 16 17 18 19 20 21 22 23 24 25 26 27 28 29 30 31 32 33 34 35 36 37 38 39 40 41 42 43 44 45 46 47 48 49 50
000
ASUS45 KBOU 281907
RWRCO

WEATHER ROUNDUP FOR COLORADO
NATIONAL WEATHER SERVICE DENVER/BOULDER CO
100 PM MDT SAT MAR 28 2015

NOTE: "FAIR" INDICATES FEW OR NO CLOUDS BELOW 12000 FEET WITH NO
SIGNIFICANT WEATHER AND/OR OBSTRUCTIONS TO VISIBILITY.

COZ001>005-013-030-031-282000-
...NORTHWEST COLORADO...

CITY           SKY/WX    TMP DP  RH WIND       PRES   REMARKS
CRAIG          SUNNY     70  26  19 W18       30.14F
HAYDEN         PTSUNNY   63  27  25 W12       30.16F
MEEKER         SUNNY     69  26  20 VRB6      30.16F
MOUNT WERNER   NOT AVBL
STEAMBOAT SPGS SUNNY     61  29  29 SW3       30.18F
WALDEN         SUNNY     59  21  23 SW21G28   30.20F
$$

COZ006>008-011-282000-
...WEST CENTRAL VALLEYS...

CITY           SKY/WX    TMP DP  RH WIND       PRES   REMARKS
GRAND JUNCTION SUNNY     69  26  20 VRB5      30.14F
MONTROSE       SUNNY     71  22  15 MISG      30.19F
EAGLE          SUNNY     66  19  16 SW15G24   30.20F
RIFLE          SUNNY     66  27  23 VRB3      30.16F
DELTA          SUNNY     72  25  17 SW5       30.16F
NUCLA          SUNNY     68  25  19 N5        30.25F
$$

COZ017>023-064>068-282000-
...SOUTHWEST COLORADO...

CITY           SKY/WX    TMP DP  RH WIND       PRES   REMARKS
DURANGO        SUNNY     68  23  18 SW14G20   30.23F
CORTEZ         SUNNY     70  24  17 W6        30.23F
PAGOSA SPRINGS SUNNY     63  15  15 SW8       30.28F
TELLURIDE      SUNNY     57  19  22 W9        30.37F
WOLF CREEK PAS SUNNY     41  16  36 SW12      30.51S
$$

COZ009-010-012-014-032>034-037-058>063-282000-
...CENTRAL COLORADO...

CITY           SKY/WX    TMP DP  RH WIND       PRES   REMARKS
ASPEN          MOSUNNY   62  22  21 W10G22    30.24F
BUENA VISTA    SUNNY     65  11  12 W18G24    30.22F
COPPER MTN     SUNNY     45  10  24 W24G36    30.43S
BERTHOUD PASS  FAIR      34  28  80 W30       30.42R WCI  20
COTTONWOOD PAS SUNNY     57   0   9 SW7G24    30.33S
GUNNISON       SUNNY     57  25  28 W3        30.30F
KREMMLING      MOSUNNY   64  18  16 W10G26    30.21F
LEADVILLE      SUNNY     47  14  26 W17G26    30.32F
SALIDA         SUNNY     69  17  13 SW20G25   30.28F
SUNLIGHT       SUNNY     50  19  29 SW6       30.43F
WILKERSON PASS SUNNY     50  12  22 W5        30.40S
$$

COZ069>075-282000-
...SAN LUIS VALLEY/SANGRE DE CRISTO MOUNTAINS...

CITY           SKY/WX    TMP DP  RH WIND       PRES   REMARKS
ALAMOSA        SUNNY     62  16  16 SE5       30.25F
LA VETA PASS   SUNNY     52  21  30 S14G28    30.35S
SAGUACHE       SUNNY     64  16  15 NW14G23   30.26F
$$

COZ035-036-038>040-282000-
...NORTHERN COLORADO FRONT RANGE...

CITY           SKY/WX    TMP DP  RH WIND       PRES   REMARKS
DENVER INTL AP MOSUNNY   75  26  16 SW14G22   30.03F
DMNS CITY PARK   N/A     74  22  14 SW6G14    30.01F
AURORA         MOSUNNY   73  26  17 W7G17     30.04F
FRONT RANGE AP SUNNY     75  27  16 SW9       30.05F
ERIE MUNI ARPT SUNNY     76  14   9 W17G24    30.01F
BOULDER MUN AP SUNNY     75  21  13 W15       30.01F
CENTENNIAL     MOSUNNY   73  24  16 W12       30.05F
BROOMFIELD     MOSUNNY   75  21  13 MISG      30.05F
FORT COLLINS   SUNNY     75  27  16 W5G16     30.00F
LONGMONT       SUNNY     78  22  12 W13G22    30.01F
$$

COZ041-046-047-076>085-087-088-282000-
...PIKES PEAK/PALMER DIVIDE AND SOUTHERN FOOTHILLS...

CITY           SKY/WX    TMP DP  RH WIND       PRES   REMARKS
COLO. SPRINGS  MOSUNNY   69  19  15 SE8       30.11F
A. F. ACADEMY  SUNNY     69  20  15 S8G18     30.11F
ELLICOTT       SUNNY    N/A N/A N/A SE6G17    30.10F
FALCON         SUNNY     69  18  14 SW10G20   30.15F
FORT CARSON    SUNNY     74  22  14 VRB6      30.06F
LIMON          SUNNY     71  18  13 E5        30.06F
MONUMENT HILL  SUNNY     66  19  16 SW6G16    30.13F
TRINIDAD       SUNNY     73  19  13 NW5       30.12F
$$

COZ042>045-048>051-090-091-282000-
...NORTHEAST COLORADO...

CITY           SKY/WX    TMP DP  RH WIND       PRES   REMARKS
GREELEY ARPT   SUNNY     77  28  16 SW15      29.97F
AKRON          SUNNY     74  26  16 W14G23    30.00F
BURLINGTON     SUNNY     76  23  14 VRB3      30.01F
WRAY           SUNNY     78  26  15 SE3       29.96F
STERLING       MOSUNNY   81  30  16 SW5G18    29.93F
HOLYOKE        NOT AVBL
FORT MORGAN    SUNNY     76 -20   2 SW14G20   29.99F
$$

COZ086-089-092>099-282000-
...SOUTHEAST COLORADO...

CITY           SKY/WX    TMP DP  RH WIND       PRES   REMARKS
PUEBLO         SUNNY     76  18  11 SW6       30.04F
LA JUNTA       SUNNY     81  23  11 VRB7      30.02F
LAMAR          SUNNY     77  29  17 CALM      29.99F
SPRINGFIELD      N/A     77  23  13 VRB5      30.03F
$$



USA.gov is the U.S. government's official web portal to all federal, state and local government web resources and services.